FW8328 Weather Reports


Display with metric or nautical units.
time (UTC)temp
F
wind
direction
speed
MPH
gust
MPH
rain 1hr
in
rain 24hr
in
rain mn
in
humidity
%
barometer
mb
20260506230109 57 94 0.0 3.0 0.03 0.33 0.33 90 1005.3
20260506224546 58 0 0.0 2.0 0.01 0.32 0.31 91 1005.0
20260506223045 59 0 0.0 3.0 0.00 0.31 0.30 92 1004.9
20260506221555 60 92 0.0 4.0 0.02 0.31 0.30 93 1004.6
20260506220100 60 0 0.0 2.0 0.11 0.31 0.30 94 1004.5
20260506214550 60 0 0.0 2.0 0.11 0.39 0.30 94 1004.3
20260506213103 60 360 0.0 3.0 0.11 0.39 0.30 94 1004.0
20260506211543 60 0 0.0 2.0 0.10 0.37 0.28 94 1004.1
20260506210054 60 355 0.0 2.0 0.01 0.28 0.19 94 1004.3
20260506204543 60 334 2.0 8.0 0.01 0.31 0.19 94 1004.3
20260506203039 60 0 0.0 4.0 0.02 0.31 0.19 94 1004.3
20260506201548 60 0 0.0 6.0 0.02 0.30 0.18 94 1004.4
20260506200043 60 0 1.0 9.0 0.04 0.30 0.18 94 1004.6
20260506194543 60 63 1.0 10.0 0.06 0.30 0.18 94 1004.6
20260506193044 60 138 1.0 5.0 0.06 0.29 0.17 94 1004.8
20260506191550 59 319 1.0 4.0 0.07 0.28 0.16 94 1005.1
20260506190045 59 0 2.0 4.0 0.07 0.26 0.14 94 1005.2
20260506184556 59 0 1.0 8.0 0.06 0.24 0.12 93 1005.4
20260506183045 59 98 2.0 8.0 0.07 0.23 0.11 93 1005.3
20260506181545 59 328 3.0 9.0 0.06 0.21 0.09 93 1005.6
20260506180041 59 15 3.0 13.0 0.06 0.19 0.07 93 1005.7
20260506174543 60 65 2.0 9.0 0.05 0.18 0.06 93 1005.9
20260506173050 60 134 1.0 4.0 0.04 0.16 0.04 92 1006.1
20260506171559 60 0 0.0 4.0 0.03 0.15 0.03 91 1006.2
20260506170057 60 296 0.0 3.0 0.01 0.13 0.01 91 1006.1
20260506164548 60 281 1.0 5.0 0.01 0.13 0.01 90 1006.5
20260506163043 60 258 2.0 5.0 0.00 0.12 0.00 89 1006.6
20260506161547 60 0 0.0 3.0 0.00 0.12 0.00 90 1006.5
20260506160059 60 0 0.0 2.0 0.00 0.12 0.00 90 1007.0
20260506154554 59 79 0.0 4.0 0.00 0.12 0.00 90 1007.4
20260506153048 58 0 0.0 2.0 0.00 0.12 0.00 91 1007.8
20260506151545 58 0 0.0 0.0 0.00 0.12 0.00 88 1008.0
20260506150053 59 0 0.0 0.0 0.00 0.12 0.00 89 1007.7
20260506144558 59 0 0.0 0.0 0.00 0.12 0.00 88 1007.7
20260506143044 59 0 0.0 0.0 0.00 0.12 0.00 88 1007.7
20260506141545 58 0 0.0 1.0 0.00 0.12 0.00 89 1007.8
20260506140045 57 0 1.0 4.0 0.00 0.12 0.00 89 1007.9
20260506134547 57 0 0.0 0.0 0.00 0.12 0.00 88 1007.7
20260506133042 58 0 0.0 0.0 0.00 0.12 0.00 89 1007.8
20260506131557 57 0 0.0 0.0 0.00 0.12 0.00 91 1008.3
20260506130050 56 0 0.0 0.0 0.00 0.12 0.00 91 1008.6
20260506124546 56 0 0.0 0.0 0.00 0.12 0.00 91 1008.2
20260506123051 56 0 0.0 1.0 0.00 0.12 0.00 93 1008.3
20260506121550 55 0 0.0 3.0 0.00 0.12 0.00 95 1008.1
20260506120055 54 309 1.0 4.0 0.00 0.12 0.00 96 1008.3
20260506114552 53 80 0.0 2.0 0.00 0.12 0.00 95 1008.4
20260506113043 53 0 0.0 2.0 0.00 0.12 0.00 95 1008.6
20260506111541 52 79 1.0 3.0 0.00 0.12 0.00 94 1008.3
20260506110052 52 0 1.0 2.0 0.00 0.12 0.00 93 1008.5
20260506104551 52 0 0.0 0.0 0.00 0.12 0.00 92 1008.5
20260506103049 52 0 0.0 0.0 0.00 0.12 0.00 92 1008.6
20260506101546 52 0 0.0 0.0 0.00 0.12 0.00 92 1008.7
20260506100055 52 0 0.0 0.0 0.00 0.12 0.00 92 1008.5
20260506094543 53 0 0.0 0.0 0.00 0.12 0.00 92 1008.3
20260506093046 53 0 0.0 0.0 0.00 0.12 0.00 92 1008.5
20260506091552 53 0 0.0 0.0 0.00 0.12 0.00 92 1008.3
20260506090045 53 0 0.0 0.0 0.00 0.12 0.00 91 1008.6
20260506084543 54 0 0.0 0.0 0.00 0.12 0.00 91 1008.6
20260506083040 54 0 0.0 0.0 0.00 0.12 0.00 91 1008.7
20260506081548 55 0 0.0 0.0 0.00 0.12 0.00 91 1008.8
20260506073042 55 0 0.0 0.0 0.00 0.12 0.00 91 1008.8
20260506071538 55 0 0.0 0.0 0.00 0.12 0.00 91 1008.9
20260506061542 56 0 0.0 0.0 0.00 0.12 0.00 89 1008.6
20260506044546 60 0 0.0 2.0 0.00 0.12 0.00 83 1008.6
20260506043046 61 0 0.0 0.0 0.00 0.12 0.00 82 1008.2
20260506041548 62 0 0.0 2.0 0.00 0.12 0.00 81 1008.4
20260506040048 63 0 0.0 3.0 0.00 0.12 0.00 78 1008.4
20260506034542 63 340 2.0 8.0 0.00 0.12 0.12 76 1008.2
20260506033043 63 302 2.0 6.0 0.00 0.12 0.12 76 1008.1
20260506031545 63 309 2.0 6.0 0.00 0.12 0.12 76 1008.2
20260506030057 63 298 3.0 11.0 0.00 0.12 0.12 77 1008.3
20260506024554 62 317 2.0 9.0 0.00 0.12 0.12 80 1008.2
20260506023041 60 320 2.0 7.0 0.00 0.12 0.12 85 1008.1
20260506021547 59 311 0.0 4.0 0.00 0.12 0.12 90 1008.1
20260506020046 59 0 0.0 3.0 0.00 0.12 0.12 91 1007.9
20260506014557 58 0 0.0 3.0 0.00 0.12 0.12 92 1007.7
20260506013044 58 0 0.0 0.0 0.00 0.12 0.12 92 1007.8
20260506011546 58 0 0.0 0.0 0.00 0.12 0.12 93 1007.8
20260506010053 58 0 0.0 2.0 0.00 0.12 0.12 93 1007.6
20260506004550 59 0 0.0 1.0 0.00 0.12 0.12 93 1007.5
20260506003044 59 0 0.0 2.0 0.00 0.12 0.12 93 1007.6
20260506001546 59 321 0.0 0.0 0.00 0.12 0.12 93 1007.6
20260506000051 59 0 0.0 2.0 0.00 0.12 0.12 93 1007.5
20260505234551 59 0 0.0 2.0 0.00 0.12 0.12 93 1007.4
20260505233044 59 0 0.0 1.0 0.00 0.12 0.12 93 1007.2
20260505231544 59 94 1.0 3.0 0.01 0.12 0.12 93 1006.9